Weather History for Warroad, MN

Change the Weather History Date:

Friday, May 10, 2013

  Actual Average Record
Temperature  
Mean Temperature 46 °F -  
Max Temperature 59 °F 62 °F 83 °F (1992)
Min Temperature 33 °F 38 °F 22 °F (1981)
Degree Days  
Heating Degree Days 19    
Moisture  
Dew Point 34 °F    
Average Humidity 65    
Maximum Humidity 82    
Minimum Humidity 51    
Precipitation  
Precipitation 0.00 in - - ()
Sea Level Pressure  
Sea Level Pressure 30.04 in    
Wind  
Wind Speed 10 mph (SW)    
Max Wind Speed 22 mph    
Max Gust Speed 30 mph    
Visibility 10 miles    
Events Rain    
Averages and records for this station are not official NWS values.
T = Trace of Precipitation, MM = Missing Value Source: NWS Daily Summary

Daily Weather History Graph

Daily Weather History Graph

Search for Another Location

Airport:

Trip Planner

Search our weather history database for the weather conditions in past years. The results will help you decide how hot, cold, wet, or windy it might be!

Date:

Astronomy

May. 10, 2013 Rise Set
Actual Time 5:45 AM CDT 8:50 PM CDT
Civil Twilight 5:08 AM CDT 9:27 PM CDT
Nautical Twilight 4:20 AM CDT 10:16 PM CDT
Astronomical Twilight 3:20 AM CDT 11:17 PM CDT
Moon 6:10 AM CDT (5/10) 9:42 PM CDT (5/10)
Length of Visible Light 16h 19m
Length of Day
15h 04m
New Moon, 0% of the Moon is Illuminated
May 10
New Moon
May 17
First Quarter
May 24
Full
May 31
Last Quarter
Jun 8
New

Hourly Weather History & Observations

Time (CDT) Temp. Windchill Dew Point Humidity Pressure Visibility Wind Dir Wind Speed Gust Speed Precip Events Conditions
12:14 AM 35.6 °F 31.7 °F 26.6 °F 70% 30.23 in 10.0 mi East 4.6 mph - N/A   Clear
12:54 AM 35.6 °F 31.7 °F 26.6 °F 70% 30.22 in 10.0 mi East 4.6 mph - N/A   Clear
1:14 AM 35.6 °F 31.7 °F 26.6 °F 70% 30.22 in 10.0 mi East 4.6 mph - N/A   Clear
1:34 AM 35.6 °F 31.7 °F 26.6 °F 70% 30.21 in 10.0 mi East 4.6 mph - N/A   Clear
1:54 AM 37.4 °F 32.8 °F 26.6 °F 65% 30.21 in 10.0 mi East 5.8 mph - N/A   Clear
2:14 AM 35.6 °F 32.8 °F 26.6 °F 70% 30.20 in 10.0 mi East 3.5 mph - N/A   Clear
2:34 AM 35.6 °F 30.7 °F 26.6 °F 70% 30.19 in 10.0 mi ESE 5.8 mph - N/A   Clear
2:54 AM 33.8 °F 30.8 °F 26.6 °F 75% 30.18 in 10.0 mi ESE 3.5 mph - N/A   Clear
3:14 AM 35.6 °F 31.7 °F 26.6 °F 70% 30.18 in 10.0 mi ESE 4.6 mph - N/A   Clear
3:54 AM 37.4 °F 31.4 °F 24.8 °F 60% 30.17 in 10.0 mi ESE 8.1 mph - N/A   Clear
4:14 AM 37.4 °F 32.1 °F 26.6 °F 65% 30.16 in 10.0 mi ESE 6.9 mph - N/A   Clear
4:34 AM 35.6 °F 29.9 °F 24.8 °F 65% 30.16 in 10.0 mi ESE 6.9 mph - N/A   Clear
4:54 AM 33.8 °F 28.6 °F 26.6 °F 75% 30.15 in 10.0 mi ESE 5.8 mph - N/A   Clear
5:13 AM 35.6 °F 29.2 °F 24.8 °F 65% 30.14 in 10.0 mi SE 8.1 mph - N/A   Clear
5:34 AM 35.6 °F 28.6 °F 24.8 °F 65% 30.14 in 10.0 mi SSE 9.2 mph - N/A   Clear
5:54 AM 35.6 °F 28.6 °F 26.6 °F 70% 30.13 in 10.0 mi SSE 9.2 mph - N/A   Clear
6:14 AM 37.4 °F 29.8 °F 28.4 °F 70% 30.13 in 10.0 mi South 11.5 mph - N/A   Clear
6:34 AM 37.4 °F 29.8 °F 28.4 °F 70% 30.13 in 10.0 mi South 11.5 mph - N/A   Clear
7:14 AM 39.2 °F 31.2 °F 28.4 °F 65% 30.10 in 10.0 mi South 13.8 mph - N/A   Clear
7:34 AM 39.2 °F 30.8 °F 28.4 °F 65% 30.10 in 10.0 mi South 15.0 mph 19.6 mph N/A   Clear
8:14 AM 44.6 °F 38.1 °F 30.2 °F 57% 30.08 in 10.0 mi South 13.8 mph 19.6 mph N/A   Clear
8:34 AM 44.6 °F 38.1 °F 30.2 °F 57% 30.08 in 10.0 mi South 13.8 mph 18.4 mph N/A   Clear
8:54 AM 46.4 °F 41.1 °F 33.8 °F 62% 30.07 in 10.0 mi South 11.5 mph 18.4 mph N/A   Clear
9:14 AM 48.2 °F - 35.6 °F 62% 30.06 in 10.0 mi South 10.4 mph 16.1 mph N/A   Clear
9:34 AM 50.0 °F - 35.6 °F 58% 30.04 in 10.0 mi South 16.1 mph 20.7 mph N/A   Clear
9:54 AM 51.8 °F - 37.4 °F 58% 30.03 in 10.0 mi South 10.4 mph 19.6 mph N/A   Clear
10:14 AM 53.6 °F - 39.2 °F 58% 30.03 in 10.0 mi South 11.5 mph 19.6 mph N/A   Clear
10:34 AM 55.4 °F - 39.2 °F 54% 30.02 in 10.0 mi South 13.8 mph 19.6 mph N/A   Clear
10:54 AM 55.4 °F - 39.2 °F 54% 30.01 in 10.0 mi SSW 15.0 mph 21.9 mph N/A   Clear
11:14 AM 55.4 °F - 39.2 °F 54% 29.99 in 10.0 mi SSW 12.7 mph 24.2 mph N/A   Clear
11:34 AM 55.4 °F - 41.0 °F 58% 29.98 in 10.0 mi SSW 17.3 mph 26.5 mph N/A   Clear
12:13 PM 55.4 °F - 41.0 °F 58% 29.97 in 10.0 mi SSW 19.6 mph 26.5 mph N/A   Scattered Clouds
12:34 PM 55.4 °F - 42.8 °F 63% 29.96 in 10.0 mi SSW 18.4 mph 23.0 mph N/A   Scattered Clouds
12:54 PM 55.4 °F - 42.8 °F 63% 29.96 in 10.0 mi SSW 18.4 mph 27.6 mph N/A   Clear
1:14 PM 55.4 °F - 41.0 °F 58% 29.96 in 10.0 mi SW 11.5 mph 21.9 mph N/A   Scattered Clouds
1:34 PM 55.4 °F - 39.2 °F 54% 29.95 in 10.0 mi SW 16.1 mph 23.0 mph N/A   Scattered Clouds
1:54 PM 57.2 °F - 39.2 °F 51% 29.94 in 10.0 mi SSW 17.3 mph 25.3 mph N/A   Clear
2:14 PM 57.2 °F - 39.2 °F 51% 29.92 in 10.0 mi SW 12.7 mph 21.9 mph N/A   Clear
2:34 PM 59.0 °F - 41.0 °F 51% 29.91 in 10.0 mi SSW 13.8 mph 19.6 mph N/A   Scattered Clouds
2:54 PM 57.2 °F - 41.0 °F 55% 29.90 in 10.0 mi SW 15.0 mph 26.5 mph N/A   Scattered Clouds
3:14 PM 57.2 °F - 41.0 °F 55% 29.90 in 10.0 mi SW 13.8 mph 19.6 mph N/A Rain Rain
3:33 PM 53.6 °F - 44.6 °F 72% 29.90 in 10.0 mi WSW 8.1 mph - N/A Rain Rain
3:54 PM 53.6 °F - 44.6 °F 72% 29.89 in 10.0 mi SW 9.2 mph - N/A   Mostly Cloudy
4:14 PM 53.6 °F - 42.8 °F 67% 29.91 in 10.0 mi NW 17.3 mph 23.0 mph N/A   Mostly Cloudy
4:34 PM 50.0 °F - 41.0 °F 71% 29.92 in 10.0 mi NW 16.1 mph 23.0 mph N/A   Mostly Cloudy
4:54 PM 48.2 °F - 41.0 °F 76% 29.93 in 10.0 mi NW 17.3 mph 23.0 mph N/A   Overcast
5:14 PM 48.2 °F - 42.8 °F 82% 29.93 in 10.0 mi NW 12.7 mph 20.7 mph N/A   Mostly Cloudy
5:34 PM 50.0 °F - 42.8 °F 76% 29.93 in 10.0 mi NNW 12.7 mph 19.6 mph N/A   Scattered Clouds
5:54 PM 51.8 °F - 39.2 °F 62% 29.93 in 10.0 mi NW 21.9 mph 28.8 mph N/A   Scattered Clouds
6:14 PM 51.8 °F - 39.2 °F 62% 29.94 in 10.0 mi NW 18.4 mph 28.8 mph N/A   Scattered Clouds
6:34 PM 50.0 °F - 39.2 °F 66% 29.96 in 10.0 mi NNW 20.7 mph 27.6 mph N/A   Mostly Cloudy
6:54 PM 48.2 °F - 37.4 °F 66% 29.98 in 10.0 mi NNW 17.3 mph 29.9 mph N/A   Mostly Cloudy
7:14 PM 48.2 °F - 35.6 °F 62% 29.99 in 10.0 mi NNW 20.7 mph 28.8 mph N/A   Scattered Clouds
7:34 PM 46.4 °F 39.2 °F 33.8 °F 62% 30.00 in 10.0 mi NW 18.4 mph 29.9 mph N/A   Scattered Clouds
7:54 PM 44.6 °F 37.8 °F 32.0 °F 61% 30.01 in 10.0 mi NW 15.0 mph 26.5 mph N/A   Clear
8:14 PM 44.6 °F 38.1 °F 32.0 °F 61% 30.02 in 10.0 mi NW 13.8 mph 23.0 mph N/A   Clear
8:34 PM 42.8 °F 37.5 °F 32.0 °F 66% 30.03 in 10.0 mi NNW 9.2 mph - N/A   Clear
8:54 PM 42.8 °F 37.0 °F 30.2 °F 61% 30.03 in 10.0 mi NNW 10.4 mph 17.3 mph N/A   Clear
9:14 PM 41.0 °F 34.3 °F 30.2 °F 65% 30.04 in 10.0 mi NNW 11.5 mph 16.1 mph N/A   Clear
9:34 PM 39.2 °F 32.5 °F 30.2 °F 70% 30.05 in 10.0 mi NNW 10.4 mph 16.1 mph N/A   Clear
9:53 PM 39.2 °F 33.0 °F 32.0 °F 75% 30.05 in 10.0 mi NNW 9.2 mph 17.3 mph N/A   Clear
10:14 PM 39.2 °F 32.5 °F 30.2 °F 70% 30.05 in 10.0 mi NW 10.4 mph - N/A   Clear
10:34 PM 37.4 °F 30.8 °F 30.2 °F 75% 30.06 in 10.0 mi NW 9.2 mph - N/A   Clear
10:53 PM 37.4 °F 31.4 °F 30.2 °F 75% 30.06 in 10.0 mi NW 8.1 mph - N/A   Clear
11:14 PM 37.4 °F 30.8 °F 30.2 °F 75% 30.06 in 10.0 mi NW 9.2 mph - N/A   Clear
11:34 PM 37.4 °F 30.8 °F 28.4 °F 70% 30.07 in 10.0 mi NW 9.2 mph - N/A   Clear
11:53 PM 37.4 °F 29.8 °F 28.4 °F 70% 30.06 in 10.0 mi NW 11.5 mph - N/A   Clear